Weather History for Trinidad, CO

Change the Weather History Date:

Tuesday, October 4, 2011

  Actual Average Record
Temperature  
Mean Temperature 65 °F 57 °F  
Max Temperature 74 °F 72 °F 86 °F (1954)
Min Temperature 56 °F 41 °F 29 °F (1959)
Degree Days  
Heating Degree Days 0 9  
Month to date heating degree days 0 33  
Since 1 July heating degree days 60 143  
Cooling Degree Days 0 0  
Month to date cooling degree days 8 0  
Year to date cooling degree days 1118 716  
Growing Degree Days 15 (Base 50)    
Moisture  
Dew Point 40 °F    
Average Humidity 41    
Maximum Humidity 57    
Minimum Humidity 25    
Precipitation  
Precipitation 0.01 in 0.03 in 0.60 in (1976)
Month to date precipitation 0.01 0.11  
Year to date precipitation 7.52 11.81  
Snow  
Snow 0.00 in - - ()
Month to date snowfall 0.0  
Snow Depth 0.00 in    
Sea Level Pressure  
Sea Level Pressure 29.91 in    
Wind  
Wind Speed 13 mph (SSW)    
Max Wind Speed 31 mph    
Max Gust Speed 45 mph    
Visibility 10 miles    
Events Rain    
T = Trace of Precipitation, MM = Missing Value Source: NWS Daily Summary

Daily Weather History Graph

Daily Weather History Graph

Search for Another Location

Airport:

Trip Planner

Search our weather history database for the weather conditions in past years. The results will help you decide how hot, cold, wet, or windy it might be!

Date:

Astronomy

Oct. 04, 2011 Rise Set
Actual Time 6:55 AM MDT 6:36 PM MDT
Civil Twilight 6:29 AM MDT 7:02 PM MDT
Nautical Twilight 5:58 AM MDT 7:32 PM MDT
Astronomical Twilight 5:28 AM MDT 8:02 PM MDT
Moon 2:31 PM MDT (10/4) No Moon Set
Length of Visible Light 12h 33m
Length of Day
11h 41m
First Quarter, 56% of the Moon is Illuminated
Oct 4
First Quarter
Oct 11
Full
Oct 19
Last Quarter
Oct 26
New
Nov 2
First Quarter

Hourly Weather History & Observations

Time (MDT) Temp. Dew Point Humidity Pressure Visibility Wind Dir Wind Speed Gust Speed Precip Events Conditions
12:54 AM 64.0 °F 39.9 °F 41% 29.93 in 10.0 mi WSW 17.3 mph - N/A   Clear
2:54 AM 59.0 °F 41.0 °F 51% 29.93 in 10.0 mi WNW 10.4 mph - N/A   Clear
3:54 AM 59.0 °F 41.0 °F 51% 29.93 in 10.0 mi West 4.6 mph - N/A   Clear
4:54 AM 60.1 °F 39.9 °F 47% 29.92 in 10.0 mi SW 12.7 mph - N/A   Clear
5:54 AM 59.0 °F 39.0 °F 48% 29.95 in 10.0 mi Calm Calm - N/A   Clear
6:54 AM 57.0 °F 39.0 °F 51% 29.98 in 10.0 mi WSW 11.5 mph - N/A   Clear
8:54 AM 66.0 °F 37.9 °F 36% 29.98 in 10.0 mi WSW 4.6 mph - N/A   Clear
9:54 AM 66.9 °F 36.0 °F 32% 29.98 in 10.0 mi South 9.2 mph - N/A   Clear
10:54 AM 72.0 °F 37.0 °F 28% 29.94 in 10.0 mi South 20.7 mph - N/A   Clear
1:54 PM 71.1 °F 37.0 °F 29% 29.87 in 10.0 mi South 16.1 mph 25.3 mph N/A   Clear
2:54 PM 73.0 °F 37.0 °F 27% 29.84 in 10.0 mi South 23.0 mph 31.1 mph N/A   Clear
3:54 PM 70.0 °F 37.9 °F 31% 29.84 in 10.0 mi South 18.4 mph 28.8 mph N/A   Clear
4:54 PM 63.0 °F 43.0 °F 48% 29.86 in 10.0 mi South 18.4 mph 26.5 mph 0.00 in Rain Light Rain
5:54 PM 66.0 °F 39.9 °F 38% 29.87 in 10.0 mi South 25.3 mph 31.1 mph 0.01 in   Mostly Cloudy
6:54 PM 64.0 °F 39.9 °F 41% 29.89 in 10.0 mi South 16.1 mph - 0.00 in   Overcast
7:54 PM 64.0 °F 39.9 °F 41% 29.88 in 10.0 mi South 13.8 mph - 0.00 in   Scattered Clouds
8:54 PM 64.0 °F 39.9 °F 41% 29.86 in 10.0 mi South 12.7 mph - N/A   Overcast
9:54 PM 62.1 °F 44.1 °F 52% 29.88 in 10.0 mi South 9.2 mph - N/A   Overcast
10:54 PM 59.0 °F 44.1 °F 58% 29.83 in 10.0 mi SE 8.1 mph - 0.00 in   Mostly Cloudy
11:17 PM 60.8 °F 42.8 °F 52% 30.04 in 10.0 mi South 18.4 mph 25.3 mph N/A   Scattered Clouds
11:54 PM 60.1 °F 41.0 °F 49% 29.81 in 10.0 mi South 18.4 mph - N/A   Clear